Change the Weather History Date:

Monday, November 4, 2013

  Actual Average Record
Temperature  
Mean Temperature 62 °F -  
Max Temperature 64 °F 70 °F 84 °F (1997)
Min Temperature 59 °F 53 °F 37 °F (2011)
Degree Days  
Heating Degree Days 4    
Growing Degree Days 12 (Base 50)    
Moisture  
Dew Point 59 °F    
Average Humidity 88    
Maximum Humidity 94    
Minimum Humidity 78    
Precipitation  
Precipitation 0.05 in - - ()
Sea Level Pressure  
Sea Level Pressure 30.09 in    
Wind  
Wind Speed 8 mph (ESE)    
Max Wind Speed 14 mph    
Max Gust Speed 23 mph    
Visibility 10 miles    
Events Rain    
Averages and records for this station are not official NWS values.
T = Trace of Precipitation, MM = Missing Value Source: NWS Daily Summary

Daily Weather History Graph

Daily Weather History Graph

Search for Another Location

Airport or City:

Trip Planner

Search our weather history database for the weather conditions in past years. The results will help you decide how hot, cold, wet, or windy it might be!

Date:

Astronomy

Nov. 04, 2013 Rise Set
Actual Time 6:48 AM CST 5:39 PM CST
Civil Twilight 6:23 AM CST 6:04 PM CST
Nautical Twilight 5:55 AM CST 6:33 PM CST
Astronomical Twilight 5:26 AM CST 7:01 PM CST
Moon 7:57 AM CST (11/4) 6:50 PM CST (11/4)
Length of Visible Light 11h 40m
Length of Day
10h 50m
New Moon, 2% of the Moon is Illuminated
Nov 4
New Moon
Nov 9
First Quarter
Nov 17
Full
Nov 25
Last Quarter
Dec 2
New

Hourly Weather History & Observations

Time (CST) Temp. Dew Point Humidity Pressure Visibility Wind Dir Wind Speed Gust Speed Precip Events Conditions
12:56 AM 60.1 °F 53.1 °F 78% 30.09 in 10.0 mi SSE 13.8 mph 23.0 mph N/A   Overcast
1:56 AM 60.1 °F 53.1 °F 78% 30.09 in 10.0 mi SE 12.7 mph 19.6 mph N/A   Overcast
2:56 AM 60.1 °F 53.1 °F 78% 30.09 in 10.0 mi SE 10.4 mph - N/A   Mostly Cloudy
3:56 AM 60.1 °F 53.1 °F 78% 30.09 in 10.0 mi SE 8.1 mph - N/A   Mostly Cloudy
4:56 AM 59.0 °F 53.1 °F 81% 30.09 in 10.0 mi SE 8.1 mph - 0.00 in   Overcast
5:56 AM 59.0 °F 54.0 °F 83% 30.09 in 10.0 mi ESE 10.4 mph - 0.00 in Rain Light Rain
6:56 AM 59.0 °F 53.1 °F 81% 30.12 in 10.0 mi SE 6.9 mph - 0.00 in Rain Light Rain
7:56 AM 59.0 °F 54.0 °F 83% 30.13 in 10.0 mi SE 9.2 mph - 0.00 in   Mostly Cloudy
8:56 AM 60.1 °F 55.9 °F 86% 30.15 in 10.0 mi ESE 9.2 mph - 0.00 in Rain Light Rain
9:56 AM 60.1 °F 57.0 °F 90% 30.15 in 10.0 mi SE 8.1 mph - 0.01 in Rain Light Rain
10:56 AM 62.1 °F 57.9 °F 86% 30.15 in 10.0 mi SE 9.2 mph - 0.00 in   Overcast
11:56 AM 63.0 °F 59.0 °F 87% 30.13 in 10.0 mi SSE 8.1 mph - 0.01 in Rain Light Rain
12:38 PM 62.6 °F 59.0 °F 88% 30.03 in 10.0 mi ESE 5.8 mph - 0.00 in Rain Light Rain
12:56 PM 62.1 °F 59.0 °F 90% 30.11 in 10.0 mi East 5.8 mph - 0.01 in Rain Light Rain
1:04 PM 62.6 °F 59.0 °F 88% 30.02 in 10.0 mi ESE 4.6 mph - 0.00 in   Overcast
1:56 PM 63.0 °F 60.1 °F 90% 30.10 in 10.0 mi East 4.6 mph - 0.00 in Rain Light Rain
2:56 PM 64.0 °F 60.1 °F 87% 30.09 in 10.0 mi East 4.6 mph - 0.00 in   Overcast
3:56 PM 64.0 °F 60.1 °F 87% 30.09 in 10.0 mi East 3.5 mph - N/A   Overcast
4:12 PM 64.4 °F 60.8 °F 88% 30.01 in 10.0 mi East 3.5 mph - N/A   Overcast
4:56 PM 64.0 °F 61.0 °F 90% 30.10 in 10.0 mi ENE 3.5 mph - N/A   Overcast
5:07 PM 64.4 °F 60.8 °F 88% 30.01 in 10.0 mi Calm Calm - N/A   Overcast
5:56 PM 64.0 °F 61.0 °F 90% 30.10 in 10.0 mi Calm Calm - N/A   Overcast
6:56 PM 64.0 °F 62.1 °F 93% 30.11 in 10.0 mi ENE 3.5 mph - 0.02 in   Overcast
7:56 PM 64.0 °F 62.1 °F 93% 30.12 in 10.0 mi ENE 3.5 mph - 0.00 in Rain Light Rain
8:06 PM 64.4 °F 62.6 °F 94% 30.03 in 10.0 mi ENE 6.9 mph - 0.00 in Rain Light Rain
8:21 PM 64.4 °F 62.6 °F 94% 30.03 in 10.0 mi ENE 3.5 mph - 0.00 in   Overcast
8:30 PM 64.4 °F 62.6 °F 94% 30.03 in 10.0 mi East 3.5 mph - 0.00 in   Overcast
8:56 PM 64.9 °F 63.0 °F 93% 30.12 in 9.0 mi Calm Calm - 0.00 in   Overcast
9:56 PM 64.9 °F 63.0 °F 93% 30.13 in 10.0 mi ESE 4.6 mph - N/A   Overcast
10:48 PM 64.4 °F 62.6 °F 94% 30.03 in 10.0 mi East 4.6 mph - N/A   Overcast
10:56 PM 64.9 °F 63.0 °F 93% 30.11 in 10.0 mi East 4.6 mph - N/A   Overcast
11:10 PM 64.4 °F 62.6 °F 94% 30.03 in 10.0 mi East 3.5 mph - N/A   Overcast
11:53 PM 64.4 °F 62.6 °F 94% 30.03 in 10.0 mi East 4.6 mph - N/A   Overcast
11:56 PM 64.9 °F 63.0 °F 93% 30.11 in 10.0 mi ESE 5.8 mph - N/A   Overcast